Orbital Elements at Epoch 2459200.5 (2020-Dec-17.0) TDB
Reference: JPL 22 (heliocentric ecliptic J2000)
Element | Value | Uncertainty (1-sigma) | Units |
e | .2725697167370775 | 4.2549e-08 | |
a | 2.643096027212701 | 1.1802e-08 | au |
q | 1.92266809176644 | 1.1424e-07 | au |
i | 3.293918654503608 | 5.0013e-06 | deg |
node | 305.8437535943538 | 8.4025e-05 | deg |
peri | 358.8628006597665 | 8.4546e-05 | deg |
M | 17.21363374922576 | 8.5679e-06 | deg |
tp | 2459125.452211795297 (2020-Oct-02.95221180) | 3.7262e-05 | TDB |
period | 1569.523561805085 4.30 | 1.0513e-05 2.878e-08 | d yr |
n | .2293689682402534 | 1.5363e-09 | deg/d |
Q | 3.363523962658962 | 1.5019e-08 | au |
|
| | Orbit Determination Parameters
Additional Information
|